Location: Dodge City Community College Allied Health Building
(37.7772°N, 100.0364°W)
Time: 11:27:51
(UTC+00:00)

Daily predictions for brighter satellites

Satellite Brightness Start Highest point End
(mag) Time Altitude Azimuth Time Altitude Azimuth Time Altitude Azimuth
ERS-2 3.5 12:00:31 10° NE 12:03:11 31° E 12:05:52 10° SSE
Nadezhda 4 Rocket 3.9 12:01:29 10° N 12:07:35 72° W 12:13:43 10° S
Cosmos 1624 Rocket 3.9 12:03:56 15° NNW 12:08:14 77° WSW 12:13:25 10° SSE
SKYMED 2 3.4 12:04:23 10° S 12:08:41 75° WSW 12:13:03 10° NNW
Milstar 3 Cent rocket 3.8 12:05:31 16° SW 12:08:57 29° S 12:15:54 10° SE
Cosmos 1932 4.4 12:07:55 15° NNW 12:13:17 88° WSW 12:19:29 10° SSE
COSMOS 2428 2.8 12:11:09 10° SSW 12:16:49 80° ESE 12:22:32 10° NNE
Cosmos 2333 Rocket 2.8 12:13:29 16° WSW 12:17:14 33° WNW 12:22:24 10° N
JB-3 4.3 12:14:54 10° S 12:18:58 86° W 12:23:02 10° NNW
Cosmos 1602 Rocket 4.1 12:16:30 10° SW 12:20:34 36° WNW 12:24:39 10° N
Cosmos 1933 3.2 12:25:42 10° N 12:29:40 84° W 12:33:36 10° S
Lacrosse 5 rocket 1.3 12:26:41 10° SW 12:30:52 71° NW 12:35:12 10° NE
Cosmos 1428 Rocket 4.4 12:24:43 10° N 12:30:53 73° W 12:36:58 10° S
Cosmos 1844 Rocket 3.7 12:29:01 18° WNW 12:31:32 25° WSW 12:36:03 10° SSW
SL-08 R/B 3.4 12:28:04 10° S 12:32:42 54° W 12:37:17 10° NNW
BREEZE-M DEB (TANK) 4.2 12:28:34 18° WNW 12:32:46 68° SW 12:51:42 10° SE
Cosmos 1544 3.9 12:32:03 10° SSE 12:35:06 45° E 12:38:11 10° NNE
COSMOS 2455 3.2 12:30:25 14° NW 12:35:19 43° WSW 12:40:55 10° S
Cosmos 1953 Rocket 3.6 12:32:13 10° S 12:36:38 84° E 12:41:08 10° N
SJ-11-01 4.3 12:31:56 10° NNE 12:36:38 89° ESE 12:41:19 10° SSW
H-2A R/B 3.0 12:32:56 10° NNW 12:36:44 23° WNW 12:40:32 10° WSW
Cosmos-2242 3.9 12:33:51 14° NW 12:36:44 27° W 12:40:16 10° SSW
Cosmos 2279 Rocket 4.5 12:30:46 10° S 12:36:55 65° E 12:43:08 10° NNE
ATLAS 3B R/B 4.0 12:34:12 16° WNW 12:37:29 21° NW 12:42:56 10° N
Meteor 2-3 Rocket 3.9 12:34:00 10° SSW 12:39:23 49° WNW 12:44:48 10° N
CZ-2D R/B 3.0 12:38:32 10° N 12:42:10 68° WNW 12:45:47 10° SSW
BREEZE-M DEB (TANK) 4.5 12:39:37 10° NNW 12:42:44 26° NNE 12:50:01 10° E
USA 281 4.0 12:38:41 10° N 12:44:02 28° NW 12:49:23 10° WSW
Cosmos 2278 Rocket 3.6 12:39:26 10° N 12:44:38 36° ENE 12:49:46 10° SE
Cosmos 2221 2.5 12:42:37 10° N 12:46:53 88° E 12:51:07 10° S
USA 215 3.6 12:41:45 10° NE 12:47:51 44° NW 12:53:56 10° WSW
SeaSat 1 4.1 12:44:06 10° ESE 12:48:22 31° NE 12:52:40 10° N
Cosmos 2237 Rocket 3.1 12:43:30 10° S 12:49:00 55° ESE 12:54:32 10° NNE
Cosmos 1862 3.2 12:45:24 10° SSW 12:49:10 58° W 12:52:58 10° N
ARGOS 3.5 12:47:09 10° N 12:52:09 40° WNW 12:57:07 10° SW
CZ-2C R/B 2.6 12:49:05 10° N 12:52:50 74° WNW 12:56:37 10° SSW
Cosmos 2322 4.1 12:47:59 10° SW 12:53:17 40° WNW 12:58:37 10° N
Helios 1B rocket 2.5 12:51:06 10° N 12:54:57 51° WNW 12:58:48 10° SSW
Cosmos 1666 4.0 12:52:40 10° SSE 12:56:01 41° E 12:59:22 10° NNE
COSMO-SKYMED 1 3.9 12:53:40 10° SW 12:56:56 21° W 13:00:13 10° NW
CZ-4B R/B 4.3 12:53:23 10° NNE 12:57:19 67° E 13:01:24 10° S
Meteor 1-31 Rocket 2.7 13:05:08 10° N 13:08:55 84° WNW 13:12:42 10° SSW
BREEZE-M DEB (TANK) 4.4 12:57:17 10° WSW 13:10:46 46° NW 13:14:11 10° NE
CZ-3 R/B 2.9 13:04:39 10° W 13:16:41 40° SSW 13:21:19 10° SE
Cosmos 2292 Rocket 4.4 23:40:43 10° S 23:45:55 85° E 23:52:47 10° N
ATLAS 5 CENTAUR R/B 4.2 23:44:02 10° NW 23:49:14 38° WSW 23:55:21 10° S
Cosmos 2263 Rocket 2.2 23:45:12 10° SSW 23:50:43 75° ESE 23:56:17 10° NNE
Cosmos 1544 2.7 23:48:18 10° N 23:51:32 61° E 23:54:43 10° SSE
Cosmos 1844 Rocket 4.4 23:50:15 10° ESE 23:52:37 13° E 23:54:58 10° ENE
ERS-2 3.0 23:50:09 10° S 23:52:57 43° W 23:55:46 10° NNW
Tiangong -2.0 23:49:50 10° WNW 23:53:00 78° SSW 23:56:09 10° ESE
Lacrosse 4 Rocket 3.3 23:55:26 10° NNE 23:57:07 12° NE 23:58:47 10° ENE
